JST263 NZAA-NZWN

Flight info

Callsign JST263
Flight time 1h 0m
Altitude 34000
Route IGBAT Y506 TPAPA
Aircraft A320/M-SDE3FGHIRWY/LB1

Departure

Time 2026-05-06 03:49
Airport Auckland International Airport (NZAA)

Arrival

Time 2026-05-06 04:49
Airport Wellington International Airport (NZWN)
Time Latitude Longitude Altitude Speed Heading
2026-05-06 03:18 -37.00692 174.78858 29 ft 0 kts 71°
2026-05-06 03:41 -37.00699 174.78834 26 ft 4 kts 63°
2026-05-06 03:41 -37.00713 174.78812 29 ft 4 kts
2026-05-06 03:41 -37.00734 174.78818 30 ft 4 kts 341°
2026-05-06 03:42 -37.00759 174.78828 29 ft 4 kts 348°
2026-05-06 03:42 -37.00784 174.78830 31 ft 4 kts 28°
2026-05-06 03:42 -37.00796 174.78810 27 ft 4 kts 71°
2026-05-06 03:42 -37.00804 174.78778 27 ft 3 kts 71°
2026-05-06 03:43 -37.00805 174.78775 28 ft 0 kts 71°
2026-05-06 03:45 -37.00805 174.78776 28 ft 1 kts 71°
2026-05-06 03:45 -37.00799 174.78799 26 ft 5 kts 78°
2026-05-06 03:45 -37.00819 174.78851 27 ft 9 kts 139°
2026-05-06 03:45 -37.00890 174.78882 28 ft 13 kts 165°
2026-05-06 03:46 -37.00958 174.78820 27 ft 14 kts 246°
2026-05-06 03:46 -37.00995 174.78695 25 ft 16 kts 250°
2026-05-06 03:46 -37.01033 174.78551 25 ft 18 kts 252°
2026-05-06 03:46 -37.01075 174.78392 26 ft 21 kts 251°
2026-05-06 03:47 -37.01124 174.78215 26 ft 23 kts 250°
2026-05-06 03:47 -37.01178 174.78018 26 ft 25 kts 251°
2026-05-06 03:47 -37.01230 174.77832 28 ft 16 kts 251°
2026-05-06 03:47 -37.01315 174.77784 28 ft 16 kts 159°
2026-05-06 03:48 -37.01412 174.77862 26 ft 16 kts 99°
2026-05-06 03:48 -37.01391 174.77957 26 ft 17 kts 71°
2026-05-06 03:48 -37.01271 174.78384 26 ft 86 kts 70°
2026-05-06 03:48 -37.01014 174.79314 26 ft 138 kts 71°
2026-05-06 03:49 -37.00664 174.80598 256 ft 161 kts 69°
2026-05-06 03:49 -37.00739 174.81964 935 ft 170 kts 122°
2026-05-06 03:49 -37.01732 174.82778 1452 ft 184 kts 172°
2026-05-06 03:49 -37.03041 174.82700 1975 ft 197 kts 185°
2026-05-06 03:50 -37.04472 174.82464 2265 ft 219 kts 187°
2026-05-06 03:50 -37.06046 174.82220 2686 ft 234 kts 186°
2026-05-06 03:50 -37.07653 174.82004 3477 ft 236 kts 185°
2026-05-06 03:50 -37.09305 174.81813 3864 ft 239 kts 184°
2026-05-06 03:51 -37.10965 174.81646 3967 ft 238 kts 184°
2026-05-06 03:51 -37.12619 174.81497 3978 ft 239 kts 183°
2026-05-06 03:51 -37.14260 174.81218 3989 ft 239 kts 197°
2026-05-06 03:51 -37.15917 174.80544 4227 ft 263 kts 198°
2026-05-06 03:52 -37.17727 174.79809 4863 ft 279 kts 198°
2026-05-06 03:52 -37.19590 174.79057 5749 ft 284 kts 198°
2026-05-06 03:52 -37.21483 174.78298 6653 ft 287 kts 198°
2026-05-06 03:52 -37.23398 174.77530 7516 ft 291 kts 198°
2026-05-06 03:53 -37.25337 174.76750 8361 ft 294 kts 199°
2026-05-06 03:53 -37.27296 174.75962 9223 ft 298 kts 199°
2026-05-06 03:53 -37.29279 174.75164 10072 ft 301 kts 199°
2026-05-06 03:53 -37.31327 174.74338 10494 ft 320 kts 199°
2026-05-06 03:54 -37.33494 174.73459 10704 ft 343 kts 199°
2026-05-06 03:54 -37.35823 174.72515 11079 ft 357 kts 199°
2026-05-06 03:54 -37.38208 174.71554 11746 ft 362 kts 199°
2026-05-06 03:54 -37.40615 174.70584 12466 ft 365 kts 200°
2026-05-06 03:55 -37.43043 174.69602 13177 ft 368 kts 199°
2026-05-06 03:55 -37.45492 174.68610 13895 ft 371 kts 200°
2026-05-06 03:55 -37.47960 174.67615 14546 ft 374 kts 200°
2026-05-06 03:55 -37.50454 174.66608 15157 ft 377 kts 199°
2026-05-06 03:56 -37.52959 174.65591 15776 ft 379 kts 199°
2026-05-06 03:56 -37.55481 174.64567 16379 ft 382 kts 199°
2026-05-06 03:56 -37.58026 174.63554 16984 ft 385 kts 198°
2026-05-06 03:56 -37.60621 174.62648 17604 ft 389 kts 196°
2026-05-06 03:57 -37.63259 174.61824 18221 ft 392 kts 195°
2026-05-06 03:57 -37.65932 174.61038 18814 ft 396 kts 195°
2026-05-06 03:57 -37.68625 174.60253 19389 ft 398 kts 195°
2026-05-06 03:57 -37.71334 174.59448 20007 ft 400 kts 195°
2026-05-06 03:58 -37.74050 174.58624 20642 ft 401 kts 195°
2026-05-06 03:58 -37.76732 174.57798 21260 ft 402 kts 195°
2026-05-06 03:58 -37.79489 174.56936 21843 ft 403 kts 195°
2026-05-06 03:58 -37.82218 174.56077 22396 ft 405 kts 195°
2026-05-06 03:59 -37.84921 174.55226 22941 ft 406 kts 195°
2026-05-06 03:59 -37.87672 174.54361 23475 ft 408 kts 195°
2026-05-06 03:59 -37.90430 174.53491 23983 ft 410 kts 195°
2026-05-06 03:59 -37.93202 174.52615 24408 ft 411 kts 195°
2026-05-06 04:00 -37.95984 174.51741 24829 ft 412 kts 195°
2026-05-06 04:00 -37.98810 174.51049 25237 ft 415 kts 188°
2026-05-06 04:00 -38.01679 174.50658 25641 ft 416 kts 187°
2026-05-06 04:00 -38.04562 174.50260 26039 ft 417 kts 187°
2026-05-06 04:01 -38.07454 174.49860 26439 ft 419 kts 188°
2026-05-06 04:01 -38.10358 174.49457 26818 ft 421 kts 188°
2026-05-06 04:01 -38.13275 174.49052 27214 ft 422 kts 188°
2026-05-06 04:01 -38.16199 174.48644 27595 ft 423 kts 188°
2026-05-06 04:02 -38.19133 174.48237 27976 ft 425 kts 188°
2026-05-06 04:02 -38.22074 174.47829 28357 ft 426 kts 188°
2026-05-06 04:02 -38.25032 174.47418 28725 ft 428 kts 188°
2026-05-06 04:02 -38.27998 174.47010 29081 ft 429 kts 188°
2026-05-06 04:03 -38.30967 174.46599 29439 ft 431 kts 188°
2026-05-06 04:03 -38.33949 174.46183 29844 ft 431 kts 188°
2026-05-06 04:03 -38.36926 174.45762 30374 ft 428 kts 188°
2026-05-06 04:03 -38.39881 174.45345 30830 ft 426 kts 188°
2026-05-06 04:04 -38.42823 174.44932 31253 ft 425 kts 188°
2026-05-06 04:04 -38.45758 174.44524 31665 ft 424 kts 188°
2026-05-06 04:04 -38.48683 174.44118 32097 ft 423 kts 188°
2026-05-06 04:04 -38.51604 174.43711 32495 ft 422 kts 188°
2026-05-06 04:05 -38.54519 174.43302 32925 ft 421 kts 188°
2026-05-06 04:05 -38.57423 174.42890 33357 ft 419 kts 188°
2026-05-06 04:05 -38.60323 174.42476 33788 ft 418 kts 188°
2026-05-06 04:05 -38.63212 174.42068 34217 ft 418 kts 188°
2026-05-06 04:06 -38.66105 174.41663 34353 ft 419 kts 188°
2026-05-06 04:06 -38.69010 174.41256 34371 ft 421 kts 188°
2026-05-06 04:06 -38.74852 174.40437 34373 ft 422 kts 188°
2026-05-06 04:07 -38.80682 174.39616 34374 ft 421 kts 188°
2026-05-06 04:07 -38.85517 174.38931 34375 ft 420 kts 188°
2026-05-06 04:08 -38.91330 174.38107 34375 ft 420 kts 188°
2026-05-06 04:08 -38.97143 174.37288 34377 ft 420 kts 188°
2026-05-06 04:09 -39.02955 174.36457 34379 ft 420 kts 189°
2026-05-06 04:09 -39.08803 174.36133 34378 ft 423 kts 180°
2026-05-06 04:10 -39.14695 174.36477 34380 ft 423 kts 180°
2026-05-06 04:10 -39.20546 174.36827 34377 ft 423 kts 180°
2026-05-06 04:11 -39.26433 174.37169 34382 ft 424 kts 180°
2026-05-06 04:11 -39.32332 174.37510 34378 ft 424 kts 180°
2026-05-06 04:12 -39.38225 174.37845 34377 ft 424 kts 180°
2026-05-06 04:12 -39.44129 174.38181 34378 ft 425 kts 180°
2026-05-06 04:13 -39.50034 174.38530 34380 ft 425 kts 181°
2026-05-06 04:13 -39.55936 174.38873 34373 ft 424 kts 181°
2026-05-06 04:14 -39.61835 174.39216 34372 ft 424 kts 181°
2026-05-06 04:14 -39.67733 174.39556 34377 ft 424 kts 181°
2026-05-06 04:15 -39.73629 174.39897 34375 ft 423 kts 181°
2026-05-06 04:15 -39.79515 174.40245 34372 ft 423 kts 181°
2026-05-06 04:16 -39.85395 174.40595 34365 ft 423 kts 181°
2026-05-06 04:16 -39.91289 174.40938 34373 ft 423 kts 181°
2026-05-06 04:17 -39.97168 174.41281 34368 ft 423 kts 181°
2026-05-06 04:17 -40.03001 174.41623 34364 ft 422 kts 181°
2026-05-06 04:18 -40.08849 174.41974 34099 ft 414 kts 181°
2026-05-06 04:18 -40.11696 174.42149 33830 ft 405 kts 181°
2026-05-06 04:18 -40.14502 174.42318 33213 ft 407 kts 181°
2026-05-06 04:19 -40.17359 174.42482 32333 ft 413 kts 181°
2026-05-06 04:19 -40.20246 174.42645 31552 ft 416 kts 181°
2026-05-06 04:19 -40.23110 174.42813 31242 ft 408 kts 181°
2026-05-06 04:19 -40.25928 174.42984 30811 ft 402 kts 181°
2026-05-06 04:20 -40.28714 174.43152 30324 ft 399 kts 181°
2026-05-06 04:20 -40.31477 174.43317 29755 ft 397 kts 181°
2026-05-06 04:20 -40.34227 174.43477 29207 ft 394 kts 181°
2026-05-06 04:20 -40.36960 174.43636 28684 ft 391 kts 181°
2026-05-06 04:21 -40.39627 174.43797 28345 ft 376 kts 181°
2026-05-06 04:21 -40.42207 174.43955 27714 ft 369 kts 180°
2026-05-06 04:21 -40.44758 174.44110 27002 ft 365 kts 180°
2026-05-06 04:21 -40.47281 174.44261 26263 ft 362 kts 180°
2026-05-06 04:22 -40.49786 174.44408 25522 ft 359 kts 180°
2026-05-06 04:22 -40.52241 174.44552 24797 ft 357 kts 180°
2026-05-06 04:22 -40.54711 174.44696 24181 ft 355 kts 180°
2026-05-06 04:23 -40.59603 174.44989 22702 ft 343 kts 179°
2026-05-06 04:23 -40.61953 174.45136 22234 ft 333 kts 180°
2026-05-06 04:23 -40.64230 174.45275 21793 ft 323 kts 180°
2026-05-06 04:23 -40.66447 174.45408 21363 ft 317 kts 180°
2026-05-06 04:24 -40.68655 174.45537 20973 ft 319 kts 180°
2026-05-06 04:24 -40.70880 174.45680 20558 ft 321 kts 178°
2026-05-06 04:24 -40.73110 174.45964 20147 ft 323 kts 175°
2026-05-06 04:24 -40.75358 174.46355 19735 ft 325 kts 174°
2026-05-06 04:25 -40.77570 174.46784 19333 ft 327 kts 174°
2026-05-06 04:25 -40.79829 174.47226 18891 ft 330 kts 174°
2026-05-06 04:25 -40.82109 174.47662 18426 ft 332 kts 174°
2026-05-06 04:25 -40.84405 174.48088 17945 ft 334 kts 174°
2026-05-06 04:26 -40.86712 174.48506 17485 ft 335 kts 174°
2026-05-06 04:26 -40.89019 174.48918 17015 ft 336 kts 174°
2026-05-06 04:26 -40.91348 174.49328 16528 ft 338 kts 174°
2026-05-06 04:26 -40.93675 174.49735 16158 ft 336 kts 174°
2026-05-06 04:27 -40.96003 174.50146 15656 ft 338 kts 174°
2026-05-06 04:27 -40.98312 174.50556 15375 ft 333 kts 174°
2026-05-06 04:27 -41.00608 174.50964 14999 ft 332 kts 174°
2026-05-06 04:27 -41.02898 174.51368 14648 ft 331 kts 174°
2026-05-06 04:28 -41.05178 174.51770 14284 ft 330 kts 174°
2026-05-06 04:28 -41.07449 174.52172 13912 ft 328 kts 174°
2026-05-06 04:28 -41.09703 174.52597 13536 ft 327 kts 173°
2026-05-06 04:28 -41.11942 174.53068 13149 ft 324 kts 173°
2026-05-06 04:29 -41.14151 174.53554 12489 ft 320 kts 173°
2026-05-06 04:29 -41.16339 174.54043 11835 ft 318 kts 173°
2026-05-06 04:29 -41.18485 174.54520 11216 ft 315 kts 173°
2026-05-06 04:29 -41.20638 174.54993 10651 ft 310 kts 173°
2026-05-06 04:30 -41.22733 174.55450 10224 ft 301 kts 173°
2026-05-06 04:30 -41.24791 174.55899 9620 ft 298 kts 173°
2026-05-06 04:30 -41.26821 174.56341 9074 ft 294 kts 174°
2026-05-06 04:30 -41.28826 174.56785 8504 ft 291 kts 171°
2026-05-06 04:31 -41.30752 174.57616 7956 ft 291 kts 159°
2026-05-06 04:31 -41.32599 174.58685 7389 ft 289 kts 159°
2026-05-06 04:31 -41.34447 174.59754 6748 ft 290 kts 160°
2026-05-06 04:31 -41.36276 174.60817 6247 ft 284 kts 160°
2026-05-06 04:32 -41.38064 174.61859 5819 ft 277 kts 161°
2026-05-06 04:32 -41.39796 174.62895 5416 ft 270 kts 156°
2026-05-06 04:32 -41.41325 174.64310 5013 ft 266 kts 143°
2026-05-06 04:32 -41.42720 174.65878 4619 ft 259 kts 142°
2026-05-06 04:33 -41.44083 174.67401 4245 ft 253 kts 144°
2026-05-06 04:33 -41.45280 174.69093 3868 ft 251 kts 124°
2026-05-06 04:33 -41.46040 174.71155 3475 ft 246 kts 104°
2026-05-06 04:33 -41.46283 174.73368 3100 ft 238 kts 83°
2026-05-06 04:34 -41.46013 174.75477 2784 ft 223 kts 61°
2026-05-06 04:34 -41.45362 174.77212 2510 ft 197 kts 44°
2026-05-06 04:34 -41.44506 174.78494 2253 ft 175 kts 28°
2026-05-06 04:34 -41.43581 174.79353 2011 ft 152 kts 14°
2026-05-06 04:35 -41.42675 174.79859 1829 ft 132 kts
2026-05-06 04:35 -41.41828 174.80084 1680 ft 123 kts 355°
2026-05-06 04:35 -41.40982 174.80146 1513 ft 125 kts 355°
2026-05-06 04:35 -41.40103 174.80200 1359 ft 127 kts 358°
2026-05-06 04:36 -41.39206 174.80251 1198 ft 129 kts 358°
2026-05-06 04:36 -41.38315 174.80292 1062 ft 131 kts 359°
2026-05-06 04:36 -41.37412 174.80347 850 ft 127 kts
2026-05-06 04:36 -41.36519 174.80402 701 ft 125 kts
2026-05-06 04:37 -41.35640 174.80477 512 ft 128 kts
2026-05-06 04:37 -41.34746 174.80556 344 ft 124 kts
2026-05-06 04:37 -41.33877 174.80615 177 ft 124 kts
2026-05-06 04:37 -41.33022 174.80668 148 ft 131 kts
2026-05-06 04:38 -41.32037 174.80715 670 ft 152 kts
2026-05-06 04:38 -41.30965 174.80785 1652 ft 152 kts 355°
2026-05-06 04:38 -41.29879 174.80860 2246 ft 164 kts 354°
2026-05-06 04:38 -41.28684 174.80935 2714 ft 177 kts 354°
2026-05-06 04:39 -41.27426 174.81129 2991 ft 190 kts
2026-05-06 04:39 -41.26237 174.82044 3039 ft 213 kts 38°
2026-05-06 04:39 -41.25582 174.83887 3041 ft 233 kts 75°
2026-05-06 04:39 -41.25783 174.86080 3041 ft 248 kts 109°
2026-05-06 04:40 -41.26829 174.87897 3041 ft 251 kts 145°
2026-05-06 04:40 -41.28372 174.88758 3041 ft 241 kts 176°
2026-05-06 04:40 -41.30036 174.88998 3042 ft 242 kts 183°
2026-05-06 04:40 -41.31717 174.89159 3038 ft 240 kts 182°
2026-05-06 04:41 -41.33374 174.89302 3048 ft 240 kts 183°
2026-05-06 04:41 -41.35038 174.89443 3036 ft 240 kts 184°
2026-05-06 04:41 -41.36693 174.89559 3018 ft 236 kts 183°
2026-05-06 04:41 -41.38326 174.89708 3049 ft 239 kts 183°
2026-05-06 04:42 -41.39986 174.89842 3055 ft 238 kts 183°
2026-05-06 04:42 -41.41634 174.89960 3023 ft 236 kts 183°
2026-05-06 04:42 -41.43223 174.90094 3022 ft 221 kts 184°
2026-05-06 04:42 -41.44696 174.90221 3027 ft 203 kts 187°
2026-05-06 04:43 -41.45976 174.89936 3056 ft 179 kts 214°
2026-05-06 04:43 -41.46928 174.89058 2922 ft 157 kts 240°
2026-05-06 04:43 -41.47476 174.87879 2800 ft 145 kts 261°
2026-05-06 04:43 -41.47654 174.86609 2662 ft 135 kts 277°
2026-05-06 04:44 -41.47517 174.85395 2537 ft 132 kts 288°
2026-05-06 04:44 -41.47305 174.84210 2410 ft 131 kts 288°
2026-05-06 04:44 -41.47095 174.83026 2284 ft 131 kts 289°
2026-05-06 04:44 -41.46886 174.81848 2167 ft 130 kts 290°
2026-05-06 04:45 -41.46487 174.80814 2099 ft 125 kts 311°
2026-05-06 04:45 -41.45797 174.80113 2042 ft 127 kts 330°
2026-05-06 04:45 -41.44913 174.79860 2040 ft 136 kts 352°
2026-05-06 04:45 -41.43953 174.79925 2015 ft 140 kts 354°
2026-05-06 04:46 -41.42958 174.79991 2021 ft 139 kts 355°
2026-05-06 04:46 -41.42025 174.80060 1932 ft 130 kts 354°
2026-05-06 04:46 -41.41137 174.80122 1724 ft 127 kts 352°
2026-05-06 04:46 -41.40268 174.80182 1488 ft 126 kts 356°
2026-05-06 04:47 -41.39379 174.80241 1272 ft 130 kts 358°
2026-05-06 04:47 -41.38496 174.80301 1074 ft 127 kts 359°
2026-05-06 04:47 -41.37612 174.80361 891 ft 129 kts
2026-05-06 04:47 -41.36706 174.80421 684 ft 128 kts
2026-05-06 04:48 -41.35834 174.80470 602 ft 125 kts
2026-05-06 04:48 -41.34958 174.80533 397 ft 125 kts
2026-05-06 04:48 -41.34074 174.80604 222 ft 127 kts
2026-05-06 04:48 -41.33222 174.80653 60 ft 118 kts
2026-05-06 04:49 -41.32546 174.80696 29 ft 79 kts
2026-05-06 04:49 -41.32254 174.80717 38 ft 3 kts
2026-05-06 04:49 -41.32222 174.80720 41 ft 10 kts
2026-05-06 04:49 -41.32171 174.80771 44 ft 11 kts 80°
2026-05-06 04:50 -41.32205 174.80850 43 ft 13 kts 172°
2026-05-06 04:50 -41.32314 174.80842 39 ft 19 kts 183°
2026-05-06 04:50 -41.32467 174.80831 33 ft 25 kts 183°
2026-05-06 04:50 -41.32646 174.80819 26 ft 21 kts 182°
2026-05-06 04:51 -41.32774 174.80811 26 ft 15 kts 182°
2026-05-06 04:51 -41.32837 174.80865 26 ft 12 kts 126°
2026-05-06 04:51 -41.32890 174.80939 26 ft 8 kts 98°
2026-05-06 04:51 -41.32866 174.80999 26 ft 5 kts 53°
2026-05-06 04:52 -41.32860 174.81010 26 ft 0 kts 49°